Theta_e
324 323 322 321 320 319 318 318 319 319 319 319 319 320 320 320 320 320 320 320 319 319 319 319 318 318 319 318 318 318 318 317 319 317 316 315 314 315 315 314 314 314 313
321 319 317 315 314 313 313 313 314 314 315 314 314 314 315 315 315 315 315 315 315 315 316 316 317 317 318 318 317 317 316 316 316 319 315 314 313 314 315 313 313 313 313
316 314 312 311 311 310 310 310 310 311 311 312 312 312 311 312 312 312 312 312 313 315 316 316 316 316 317 316 316 315 315 315 315 314 313 312 312 312 313 313 313 313 313
313 312 311 310 309 309 308 308 308 308 309 309 310 310 310 310 310 311 311 311 312 313 314 314 314 315 315 315 314 315 315 314 313 313 312 312 312 313 313 313 314 314 314
310 309 308 308 307 307 307 307 308 308 308 309 309 310 310 310 309 306 306 308 310 312 313 313 314 313 311 310 310 310 311 312 313 313 314 313 313 314 315 315 315 314 313
308 307 307 307 308 307 307 308 308 309 309 309 310 310 310 310 307 304 303 305 308 310 312 312 313 312 312 311 310 309 309 309 311 312 313 315 317 316 315 315 314 312 312
306 305 305 306 306 306 307 307 308 308 308 309 309 308 307 306 305 303 302 304 307 310 311 311 312 312 312 313 313 313 312 311 309 309 311 311 312 313 313 312 312 310 310
304 304 303 304 305 305 306 306 307 307 307 307 306 307 307 306 304 303 302 305 307 309 310 311 311 312 313 310 309 307 306 306 307 307 308 309 309 309 309 309 310 310 309
304 304 303 304 304 305 305 304 304 304 305 305 305 306 306 305 304 302 300 303 305 308 309 310 309 309 308 306 304 304 304 305 306 306 305 305 306 306 306 307 308 309 309
303 303 303 304 304 303 303 303 303 303 303 303 303 305 304 304 303 300 298 298 301 304 306 308 309 308 305 301 300 301 303 304 303 303 304 305 306 306 307 307 305 308 308
303 303 303 302 303 302 301 301 301 300 300 301 301 303 303 301 300 300 302 300 299 300 306 309 308 304 300 299 300 300 300 302 305 305 306 308 307 305 306 307 306 305 307
302 302 302 302 301 301 300 300 300 298 298 298 298 298 299 301 299 300 301 302 303 307 307 305 305 299 297 300 301 301 304 305 306 310 309 311 308 306 307 306 306 305 306
301 301 301 301 300 299 299 298 297 295 294 294 294 295 297 299 298 297 300 300 303 304 302 302 300 297 296 300 301 301 302 303 304 311 314 312 310 307 306 306 306 305 306
299 299 299 299 299 297 296 295 295 294 293 292 292 293 295 295 294 293 299 299 300 301 302 302 298 295 295 298 300 301 301 300 301 305 314 314 311 309 308 306 305 305 305
297 297 298 296 297 296 295 293 293 290 289 289 289 291 292 291 290 293 295 296 298 299 301 300 296 294 293 294 294 294 296 298 300 303 308 316 311 310 309 307 306 306 309
296 296 294 293 294 298 296 294 291 290 289 288 289 288 289 289 290 293 295 296 298 298 300 299 295 292 291 291 292 292 295 296 298 303 311 318 313 312 309 309 311 311 311
294 295 295 295 296 296 295 293 291 290 289 288 288 289 288 287 288 291 293 295 297 300 299 296 292 291 290 290 290 291 292 294 297 302 308 316 316 313 314 310 312 313 311
295 292 293 293 295 295 293 291 289 288 288 287 287 287 288 287 287 289 292 296 298 298 298 296 292 290 289 289 289 289 291 293 296 300 306 312 312 313 312 313 313 314 314
294 294 293 293 292 293 291 290 288 286 286 285 285 286 287 287 286 286 289 291 294 295 294 296 295 292 289 289 288 289 290 291 293 298 302 310 309 309 308 308 307 306 306
291 290 292 294 294 292 292 289 288 288 286 286 287 285 286 288 286 284 287 287 287 290 291 292 293 293 290 290 290 289 289 289 291 294 297 305 312 310 308 307 306 306 305
292 291 290 291 291 291 290 289 289 288 288 288 289 285 287 290 289 285 283 284 284 286 288 288 290 291 291 290 290 289 287 287 289 292 295 302 309 313 312 310 308 307 306
291 291 290 290 289 288 288 288 289 289 288 288 288 288 287 288 289 289 288 285 283 283 284 284 287 288 288 288 289 289 288 286 288 291 294 300 306 309 313 312 311 309 309
290 290 290 289 288 288 288 287 287 288 288 288 288 288 288 288 287 288 288 288 288 285 284 283 285 285 285 286 286 287 286 285 287 291 295 298 302 305 311 313 313 311 309
289 289 289 288 288 288 288 287 287 286 287 287 287 288 288 288 288 288 288 288 288 288 288 286 285 285 284 283 284 285 284 285 288 293 296 297 299 302 308 309 313 313 313
288 288 288 288 288 288 288 287 287 287 287 287 287 287 287 287 287 287 287 287 287 287 288 287 287 286 285 284 283 282 284 287 290 293 297 298 298 300 302 305 309 311 312
287 287 287 287 287 287 287 287 287 287 287 286 286 286 286 286 286 286 287 287 287 287 287 287 286 287 285 283 282 282 284 285 288 290 294 297 297 299 300 304 303 306 308
Wind_Speed
22 19 19 20 19 16 14 14 10 8 6 5 5 4 6 7 8 9 11 14 16 17 18 19 21 21 22 24 24 24 25 25 18 28 28 26 28 30 31 32 32 30 30
18 17 16 17 16 14 14 14 7 7 6 6 7 7 9 10 12 13 15 17 19 21 22 22 23 22 23 23 23 23 25 27 28 22 30 29 28 29 27 26 30 29 26
16 14 13 10 11 15 13 16 12 9 10 11 10 11 11 12 13 15 16 18 19 20 20 21 23 23 24 23 24 23 27 29 29 28 28 31 32 30 26 25 25 25 23
15 14 14 13 12 19 16 11 8 8 9 11 11 11 12 13 15 16 15 18 19 20 20 22 23 24 25 25 26 26 28 27 25 25 26 26 27 26 24 25 23 22 20
14 16 16 13 16 13 9 6 6 7 9 10 10 11 13 14 12 12 17 19 20 21 21 22 22 23 26 29 31 30 29 28 27 25 23 25 27 25 23 23 20 22 24
13 18 15 12 12 9 8 7 6 7 8 9 10 13 15 15 16 17 19 20 21 21 22 23 24 25 25 25 27 31 32 32 33 30 30 25 30 30 28 25 21 17 8
16 14 12 11 9 9 8 8 8 8 9 10 11 13 13 13 15 19 20 20 21 21 22 24 26 24 25 25 27 29 30 32 35 38 34 34 34 36 31 27 21 17 19
14 13 13 12 11 10 10 10 10 10 11 11 12 12 13 12 15 18 21 19 20 20 21 23 24 26 26 30 35 34 33 33 32 32 34 37 39 39 35 30 24 20 20
14 13 12 10 9 10 10 10 11 11 11 11 11 12 13 13 15 19 22 18 18 20 20 22 24 26 27 28 34 30 30 31 28 30 34 39 41 42 44 31 20 16 8
11 11 10 10 10 10 11 11 12 12 12 12 12 11 13 13 15 20 21 17 17 20 20 19 18 19 30 31 27 24 25 26 30 34 31 30 29 30 28 30 29 18 11
10 10 11 11 8 9 9 10 10 12 12 13 14 12 12 13 15 23 20 21 17 19 18 20 21 29 31 28 25 19 28 32 31 28 27 26 23 17 12 15 22 25 19
11 10 9 9 10 10 10 11 12 14 15 15 15 14 13 14 17 23 24 22 20 16 18 20 24 34 31 26 25 29 29 27 25 21 18 16 14 11 8 6 11 16 23
8 8 10 11 11 11 11 13 12 14 14 15 15 15 16 17 19 25 24 24 19 17 19 22 26 30 31 24 28 31 30 29 26 19 13 15 15 11 5 2 3 7 15
10 11 11 12 12 13 13 13 13 15 15 14 16 15 17 19 22 25 23 27 23 21 24 23 25 28 28 26 28 29 27 28 25 22 20 11 10 10 8 6 7 8 8
10 10 11 11 13 13 12 14 12 14 17 15 16 14 18 22 26 20 20 20 24 20 21 25 33 38 37 35 33 33 31 32 30 29 23 11 10 8 8 8 10 7 5
11 11 12 11 11 11 12 11 14 14 17 18 18 21 16 21 24 19 17 22 22 26 23 29 31 30 30 31 32 33 29 32 32 30 29 14 9 5 4 5 4 3 7
12 11 10 11 11 13 13 14 14 16 12 19 20 22 23 24 29 27 22 22 25 22 27 29 28 29 30 30 30 29 29 32 31 29 28 23 15 13 13 2 1 10 12
10 13 12 13 13 13 13 14 15 16 18 20 24 22 25 28 30 30 27 20 23 27 26 26 25 29 32 32 33 33 34 34 34 32 30 27 22 17 12 10 10 7 5
10 10 11 12 13 13 13 13 14 16 17 17 22 27 27 28 28 30 28 27 25 26 26 27 28 29 31 32 34 34 32 32 31 32 34 27 27 22 21 18 16 16 14
13 12 12 11 11 12 12 13 12 12 14 14 18 22 26 21 28 31 28 27 27 25 27 26 29 30 33 34 35 39 39 37 38 35 33 31 24 21 22 20 18 14 13
10 11 12 12 12 12 12 12 12 13 14 14 15 22 22 17 19 23 26 26 26 25 26 25 28 29 31 33 35 36 36 38 39 38 37 36 32 27 22 20 19 17 16
11 11 12 12 12 14 13 12 12 12 13 14 14 16 21 19 20 20 20 24 31 24 24 22 27 28 30 32 35 35 36 38 41 41 38 35 32 29 24 25 24 21 19
13 12 12 12 13 12 13 13 14 13 14 15 16 17 18 19 20 20 20 20 21 26 22 29 23 28 29 29 30 31 33 37 34 33 34 33 30 31 27 22 20 21 24
14 13 13 13 14 14 13 14 13 15 15 16 17 17 18 18 19 19 20 20 21 21 22 23 26 27 28 30 29 31 30 32 30 30 27 29 28 26 24 25 22 21 17
14 14 14 13 13 13 13 14 14 15 16 16 17 17 18 18 20 20 21 22 21 21 22 22 25 25 28 29 32 32 31 33 33 31 24 26 24 26 23 23 22 20 20
13 13 13 13 13 13 13 13 14 14 15 16 16 16 17 18 19 21 21 22 22 21 22 22 25 25 27 28 32 37 34 33 32 32 27 25 26 24 24 22 22 20 20
Wind_Direction
110 107 105 100 98 97 95 83 62 46 33 11 351 332 307 301 302 303 297 291 287 286 282 280 281 284 283 283 283 283 283 285 284 285 286 288 283 278 281 284 286 290 291
101 97 95 101 107 100 91 79 55 33 355 336 331 320 310 308 307 304 297 291 288 286 286 287 285 286 282 279 279 278 277 280 282 287 288 289 281 280 279 283 283 285 286
102 101 95 92 90 83 60 51 22 357 335 325 325 318 315 310 302 294 289 289 288 288 290 290 289 287 283 279 277 279 279 280 281 289 291 288 289 289 288 280 274 279 283
92 85 74 59 47 49 40 25 2 336 319 314 314 313 310 307 304 299 301 298 297 294 291 287 284 282 281 283 280 277 280 281 279 276 278 277 280 286 284 280 280 276 281
79 67 52 47 47 42 34 8 337 324 314 312 317 319 318 316 316 320 313 306 300 297 293 289 286 285 288 286 283 284 286 285 284 283 281 281 277 277 270 277 274 276 277
74 64 51 38 39 28 13 354 339 323 317 324 328 327 321 315 319 324 321 308 302 298 297 297 295 295 291 291 291 284 277 275 275 275 274 274 277 275 271 272 268 264 274
61 55 45 36 30 19 7 356 346 338 337 332 333 333 335 331 326 327 325 315 303 298 298 298 298 298 298 295 295 298 294 286 275 268 270 270 274 275 278 281 267 255 258
54 47 38 32 24 15 6 359 350 343 338 333 331 331 329 330 331 327 322 318 308 302 301 300 299 299 304 308 308 299 289 282 279 272 265 266 269 271 268 265 264 257 255
49 43 38 32 28 21 13 0 355 345 338 331 326 325 330 333 331 331 333 322 310 307 307 307 308 309 311 316 312 298 295 292 294 289 284 281 279 278 272 264 244 230 238
47 44 40 33 28 22 10 5 359 351 345 335 333 338 337 338 338 346 352 335 321 325 326 324 323 321 324 324 320 310 307 308 307 300 295 292 290 285 280 261 246 233 218
42 38 32 26 25 22 16 15 8 3 359 356 350 347 350 348 346 354 7 355 336 325 325 333 332 329 331 339 344 333 318 324 326 316 305 302 301 296 279 272 252 222 213
39 35 29 27 32 28 24 20 17 11 5 3 1 359 358 356 350 360 12 9 355 330 346 338 335 340 348 356 350 347 354 352 338 317 312 321 308 313 310 281 255 228 212
41 38 36 32 34 32 32 24 22 15 14 10 4 1 0 357 354 356 4 358 20 3 349 346 344 352 1 357 352 354 1 351 340 330 348 352 354 349 353 31 188 196 201
43 35 35 39 40 39 40 32 31 23 17 12 6 2 0 1 0 1 2 5 8 3 2 359 358 4 7 6 4 3 357 348 338 336 340 6 15 28 44 75 106 124 136
45 39 40 37 39 44 46 42 41 41 35 24 14 9 9 8 1 12 13 12 9 1 11 12 13 11 5 1 357 353 352 352 348 342 330 336 21 43 68 95 113 109 111
48 41 37 38 34 43 42 44 39 47 33 40 44 38 23 20 24 25 30 33 28 24 25 24 16 7 3 356 354 349 352 351 348 341 341 7 52 36 67 60 114 143 157
44 41 36 40 36 41 38 36 25 28 33 30 40 44 39 28 32 30 33 34 26 29 31 25 16 6 360 357 354 350 345 346 349 354 357 9 41 53 53 186 2 96 90
49 45 46 42 40 42 41 38 34 23 14 13 28 34 35 29 37 32 29 26 26 27 24 19 13 5 3 360 357 353 351 355 0 358 2 13 25 32 45 54 43 54 48
44 46 49 48 47 44 46 42 40 32 25 20 19 28 35 25 26 32 31 31 26 22 16 13 11 8 2 359 360 358 357 356 359 4 6 13 25 28 33 39 49 55 49
55 49 48 52 51 49 44 42 33 25 20 18 26 13 18 19 23 23 27 27 26 21 15 11 9 8 4 3 2 4 0 3 3 3 360 2 21 36 42 40 41 55 59
57 54 52 55 50 49 47 42 32 29 27 28 31 23 26 27 29 27 27 24 22 21 14 11 11 8 7 5 5 3 5 1 4 2 1 1 7 26 40 43 39 46 50
58 57 55 55 52 50 47 41 35 34 33 31 26 23 27 30 26 24 22 18 24 24 18 15 14 12 9 8 6 4 2 2 3 360 360 1 5 9 29 38 40 39 41
61 61 60 57 54 50 48 45 37 32 32 31 27 26 26 28 24 22 19 18 13 14 17 17 16 14 13 12 11 9 4 358 357 359 1 1 4 8 13 22 35 45 47
60 59 59 60 52 51 46 46 42 42 38 35 32 31 27 26 26 23 20 18 17 16 15 12 15 14 11 13 14 9 7 10 5 9 8 7 7 13 16 15 24 30 41
57 56 56 53 52 49 48 44 42 38 37 35 33 30 28 26 25 22 20 19 17 16 15 16 13 12 12 10 9 11 19 26 26 22 11 9 13 15 16 18 18 28 31
57 54 53 50 47 44 43 40 38 35 33 31 29 27 25 23 22 20 18 16 15 14 13 13 11 11 9 8 6 10 22 26 29 27 20 15 14 15 16 19 22 25 26